Dewpoint
52 54 54 54 53 53 53 53 53 52 52 52 51 50 48 47 47 46 48 47 46 46 45 45 47 46 47 46 47 47 46 45 46 44 43 45 43 42 41 40 41 41
52 54 56 54 54 55 54 54 53 53 53 53 53 52 51 49 47 46 47 46 48 45 45 45 46 45 46 46 46 45 46 45 45 46 44 43 43 43 43 42 41 42
53 53 54 54 53 54 54 54 54 54 54 54 54 54 53 52 48 47 47 46 47 45 46 45 45 46 45 45 45 46 44 43 44 47 45 42 44 43 43 42 42 42
53 53 54 54 54 54 54 54 54 54 54 55 55 54 55 54 50 47 47 50 47 46 46 45 45 45 45 44 45 45 44 44 43 46 45 46 45 43 43 43 45 45
53 53 54 54 54 54 54 54 53 54 54 55 55 55 56 56 52 47 47 48 47 45 45 46 45 45 46 45 44 44 44 43 44 45 44 44 44 45 43 44 45 44
53 53 54 54 54 54 54 53 53 53 54 55 55 56 56 55 54 50 48 47 46 45 44 45 44 44 45 45 44 43 44 43 43 44 43 43 43 45 43 43 44 43
52 53 53 54 54 54 54 53 54 54 53 54 55 55 56 55 55 52 49 47 46 46 44 44 44 44 45 45 44 43 43 43 43 43 42 43 44 43 43 43 43 42
52 52 52 53 53 54 54 53 53 54 54 54 54 55 56 55 55 54 52 49 47 45 45 44 44 44 44 45 45 44 43 44 43 43 42 42 43 42 42 44 44 42
52 52 52 52 52 53 54 53 53 54 55 54 54 54 56 55 55 55 53 50 48 47 46 44 44 44 45 45 44 44 43 44 44 43 43 43 42 42 41 43 44 45
51 51 51 51 51 52 52 53 53 54 55 55 54 55 54 56 55 55 53 51 50 49 47 46 45 45 44 44 44 43 43 43 44 44 44 43 43 42 42 43 43 44
51 50 51 51 51 51 52 52 53 53 54 55 55 55 55 55 56 55 54 52 51 50 48 47 46 45 45 45 45 45 44 43 44 44 45 44 44 44 45 43 44 44
51 51 50 50 51 51 51 52 52 53 53 54 55 55 55 55 55 55 54 52 51 51 50 49 48 47 46 45 45 45 45 45 45 45 45 45 45 45 44 45 44 44
50 50 50 50 51 51 51 51 51 52 52 52 54 54 54 55 55 55 55 54 53 52 51 51 50 49 48 47 47 46 46 45 46 46 46 45 45 45 44 45 45 44
50 51 51 51 50 51 50 51 51 51 52 52 53 54 54 54 54 55 55 54 54 53 52 52 52 51 50 49 49 48 48 47 47 47 46 46 46 46 46 45 45 45
51 51 51 51 51 51 51 50 51 51 52 52 52 53 54 54 55 55 55 55 54 54 53 53 53 52 52 51 50 50 49 49 48 48 47 47 46 46 46 46 45 45
51 51 51 51 52 51 51 51 50 51 51 51 52 52 53 54 54 55 55 55 55 54 54 54 54 54 54 53 53 51 51 50 50 49 49 49 49 48 48 47 46 46
52 52 53 52 51 52 52 51 51 51 51 51 51 52 52 53 54 54 54 54 54 55 55 55 55 54 53 48 48 49 53 52 51 51 50 50 49 49 49 49 48 47
56 55 54 53 53 51 51 51 51 51 51 51 51 51 52 53 53 53 54 54 54 54 55 55 55 55 49 48 47 46 50 53 53 52 52 51 50 50 50 50 50 50
55 54 55 55 55 53 51 51 51 51 51 51 51 51 52 52 52 53 53 54 54 54 54 54 55 51 48 48 47 46 46 51 53 53 53 52 52 51 51 50 50 50
55 55 55 56 56 56 55 53 51 51 51 51 51 52 52 52 52 52 53 53 53 53 54 54 54 52 47 47 47 46 45 46 52 53 54 53 53 52 52 52 51 51
56 55 55 56 56 56 56 55 54 53 51 51 51 51 51 51 51 52 52 53 53 53 53 53 54 50 47 46 46 46 45 46 51 52 53 53 54 54 53 53 53 52
56 56 56 56 56 57 56 56 54 53 52 52 52 51 51 51 51 52 52 52 53 53 53 53 53 48 46 46 45 45 45 50 51 52 52 52 53 53 53 54 53 53
56 56 56 56 56 56 56 56 55 54 53 53 52 52 51 51 51 51 52 52 52 52 53 53 53 49 46 45 45 45 46 51 52 52 52 52 52 53 53 53 53 53
56 56 56 56 56 56 56 56 55 55 54 54 53 52 52 51 51 51 52 52 52 52 52 52 52 51 46 45 45 45 48 52 52 52 52 53 53 53 53 53 53 54
57 56 56 56 56 56 56 56 56 56 55 54 54 53 53 53 52 52 52 52 52 52 54 53 53 52 46 45 44 44 46 51 52 53 53 52 52 52 53 54 54 55
58 57 57 56 56 56 57 57 57 56 56 55 54 55 54 55 54 53 52 52 53 53 53 53 53 53 52 46 45 44 44 50 52 53 53 53 53 53 53 54 55 54